Track STARLINK-3091 now! 10-day predictions STARLINK-3091 is classified as:
1 49172U 21082AU 22186.40145074 -.00000561 00000-0 -40972-4 0 9990 2 49172 69.9993 61.0252 0002930 262.4740 97.6086 14.96723698 45263